Location: Naloco
(16.5478°S, 37.1017°E)
Time: 02:56:36
(UTC+00:00)

NOSS 3-2 (A) - Pass Details

Date: 13 August 2020
Orbit: 795 x 1413 km, 63.4° (Epoch: 19 September)

Event Time Altitude Azimuth Distance (km) Brightness Sun altitude
Rises 15:34:21 0° 204° (SSW) 3,510 6.6 -3.6°
Reaches altitude 10° 15:36:57 10° 203° (SSW) 2,501 5.8 -4.2°
Maximum altitude 15:42:38 83° 115° (ESE) 819 3.1 -5.5°
Drops below altitude 10° 15:47:57 10° 27° (NNE) 2,353 5.4 -6.8°
Sets 15:50:20 0° 26° (NNE) 3,286 6.1 -7.3°
